Location: Haliburton Scout Reserve
(45.0900°N, 78.3200°W)
Time: 13:50:36
(UTC-05:00)

Courier 1B Rocket - Visible Passes

Search period start: 30 January 2023 00:00
Search period end: 09 February 2023 00:00
Orbit: 920 x 1202 km, 28.3° (Epoch: 29 January)

Date Brightness Start Highest point End Pass type
(mag) Time Alt. Az. Time Alt. Az. Time Alt. Az.
30 Jan 7.1 18:10:54 10° S 18:13:15 12° SSE 18:15:36 10° SE visible
30 Jan 6.8 20:01:28 10° SW 20:05:17 17° S 20:05:17 17° S visible
31 Jan 6.9 19:01:03 10° SSW 19:04:43 16° S 19:08:03 11° SE visible
31 Jan 7.3 20:53:22 10° SW 20:54:25 13° SW 20:54:25 13° SW visible
01 Feb 7.0 18:00:51 10° SSW 18:04:02 14° S 18:07:15 10° SE visible
01 Feb 6.8 19:52:30 10° SW 19:56:16 16° S 19:57:12 16° S visible
02 Feb 6.9 18:51:49 10° SW 18:55:34 16° S 18:59:22 10° SE visible
02 Feb 7.2 20:45:02 10° SW 20:46:23 12° SSW 20:46:23 12° SSW visible
03 Feb 7.0 17:51:18 10° SSW 17:54:52 16° S 17:58:28 10° SE visible
03 Feb 6.9 19:43:47 10° SW 19:47:06 15° S 19:49:13 13° SSE visible
04 Feb 7.0 18:42:49 10° SW 18:46:24 16° S 18:50:02 10° SSE visible
05 Feb 7.2 19:35:31 10° SW 19:37:55 12° SSW 19:40:19 10° S visible
06 Feb 7.1 18:34:05 10° SW 18:37:14 14° S 18:40:25 10° SSE visible
08 Feb 7.3 18:25:47 10° SW 18:28:03 12° SSW 18:30:19 10° S visible
